Weather History for EIKY - March, 2014

Change the Weather History Date:

Saturday, March 1, 2014

  Actual Average (EINN) Record (EINN)
Temperature  
Mean Temperature 46 °F -  
Max Temperature 51 °F 48 °F 55 °F (1997)
Min Temperature 41 °F 35 °F 23 °F (2001)
Degree Days  
Heating Degree Days 19    
Moisture  
Dew Point 43 °F    
Average Humidity 85    
Maximum Humidity 93    
Minimum Humidity 76    
Precipitation  
Precipitation 0.00 in - - ()
Sea Level Pressure  
Sea Level Pressure 29.47 in    
Wind  
Wind Speed 7 mph ()    
Max Wind Speed 15 mph    
Max Gust Speed -    
Visibility 6.2 miles    
Events Rain    
Averages and records for this station are not official NWS values.
T = Trace of Precipitation, MM = Missing Value Source: Averaged Metar Reports

Daily Weather History Graph

Daily Weather History Graph

Search for Another Location

Airport or City:

Trip Planner

Search our weather history database for the weather conditions in past years. The results will help you decide how hot, cold, wet, or windy it might be!

Date:

Astronomy

Mar. 01, 2014 Rise Set
Actual Time 7:24 AM GMT 6:17 PM GMT
Civil Twilight 6:50 AM GMT 6:51 PM GMT
Nautical Twilight 6:11 AM GMT 7:30 PM GMT
Astronomical Twilight 5:31 AM GMT 8:10 PM GMT
Moon 7:04 AM GMT (3/1) 6:58 PM GMT (3/1)
Length of Visible Light 12h 01m
Length of Day
10h 52m
New Moon, 0% of the Moon is Illuminated
Mar 1
New Moon
Mar 8
First Quarter
Mar 16
Full
Mar 24
Last Quarter
Mar 30
New

Hourly Weather History & Observations

Time (GMT) Temp. Windchill Dew Point Humidity Pressure Visibility Wind Dir Wind Speed Gust Speed Precip Events Conditions
7:00 AM 41.0 °F 38.0 °F 39.2 °F 93% 29.50 in 6.2 mi SE 4.6 mph - N/A   Mostly Cloudy
8:00 AM 41.0 °F 38.0 °F 39.2 °F 93% 29.50 in 6.2 mi ESE 4.6 mph - N/A   Mostly Cloudy
8:30 AM 42.8 °F 40.1 °F 39.2 °F 87% 29.50 in 6.2 mi East 4.6 mph - N/A   Mostly Cloudy
9:00 AM 42.8 °F 41.1 °F 39.2 °F 87% 29.50 in 6.2 mi ESE 3.5 mph - N/A   Mostly Cloudy
9:30 AM 42.8 °F 41.1 °F 41.0 °F 93% 29.50 in 6.2 mi Variable 3.5 mph - N/A   Mostly Cloudy
10:00 AM 44.6 °F 43.1 °F 41.0 °F 87% 29.50 in 6.2 mi Variable 3.5 mph - N/A   Overcast
10:30 AM 46.4 °F 45.2 °F 41.0 °F 81% 29.50 in 6.2 mi Variable 3.5 mph - N/A   Overcast
11:00 AM 46.4 °F 41.9 °F 42.8 °F 87% 29.50 in 6.2 mi South 9.2 mph - N/A   Mostly Cloudy
11:30 AM 48.2 °F - 42.8 °F 82% 29.47 in 6.2 mi South 13.8 mph - N/A   Mostly Cloudy
12:00 PM 50.0 °F - 42.8 °F 76% 29.47 in 6.2 mi South 13.8 mph - N/A   Mostly Cloudy
1:00 PM 50.0 °F - 42.8 °F 76% 29.47 in 6.2 mi South 13.8 mph - N/A   Scattered Clouds
1:30 PM 50.0 °F - 42.8 °F 76% 29.47 in 6.2 mi SSW 13.8 mph - N/A   Mostly Cloudy
2:00 PM 50.0 °F - 42.8 °F 76% 29.47 in 6.2 mi SSW 13.8 mph - N/A   Mostly Cloudy
2:30 PM 50.0 °F - 42.8 °F 76% 29.44 in 6.2 mi SSW 12.7 mph - N/A   Mostly Cloudy
3:00 PM 51.8 °F - 44.6 °F 76% 29.44 in 6.2 mi South 15.0 mph - N/A   Scattered Clouds
4:00 PM 50.0 °F - 44.6 °F 82% 29.44 in 6.2 mi SSW 12.7 mph - N/A   Mostly Cloudy
4:30 PM 50.0 °F - 44.6 °F 82% 29.44 in 6.2 mi SSW 11.5 mph - N/A   Mostly Cloudy
5:00 PM 50.0 °F - 44.6 °F 82% 29.44 in 6.2 mi SW 12.7 mph - N/A   Mostly Cloudy
5:30 PM 48.2 °F - 44.6 °F 87% 29.44 in 6.2 mi SW 10.4 mph - N/A Rain Light Rain
6:00 PM 48.2 °F - 46.4 °F 93% 29.44 in 6.2 mi West 5.8 mph - N/A Rain Light Rain
6:30 PM 48.2 °F - 46.4 °F 93% 29.44 in 6.2 mi West 5.8 mph - N/A Rain Light Rain
7:00 PM 48.2 °F - 46.4 °F 93% 29.44 in 5.6 mi West 6.9 mph - N/A Rain Light Rain
7:30 PM 48.2 °F - 46.4 °F 93% 29.44 in 6.2 mi West 11.5 mph - N/A   Overcast